Flag for U.S.A. Weather past 2 weeks in Columbus, Georgia, U.S.A.

Now
62 °F

Low clouds.


Feels Like: 62 °F
Forecast: 60 / 77 °F
Wind: 5 mph from East

Location: Columbus Metropolitan Airport

Current Time: Apr 18, 2015 at 12:05:43 AM

Latest Report: Apr 17, 2015 at 10:51 PM


Visibility: 10 mi

Pressure: 29.97 "Hg

Humidity: 96%

Dew point: 61 °F

Location of ColumbusLocation

Historic Weather in Columbus — Graph

°F

Columbus temperature yesterday

Maximum temperature yesterday: 62 °F (at 3:51 PM)
Minimum temperature yesterday: 56 °F (at 12:51 AM)
Average temperature yesterday: 59 °F

Past Weeks' High & Low Weather Summary

 TemperatureHumidityPressure
High88 °F (Apr 8, 4:51 PM)100% (Apr 7, 4:51 AM)30.24 "Hg (Apr 7, 4:51 AM)
Low48 °F (Apr 5, 4:51 AM)18% (Apr 11, 5:51 PM)29.96 "Hg (Apr 4, 3:51 AM)
Average68 °F73%30.10 "Hg
* Reported Apr 2 9:51 PM — Apr 17 9:51 PM, Columbus, Weather by CustomWeather, © 2015

Note: Actual official high and low records may vary slightly from our data, if they occured in-between our weather recording intervals... More about our weather records

Advertising

Columbus weather history for previous 24 hours

 ConditionsComfort  
Time TempWeatherWind HumidityBarometerVisibility
9:51 PM
Fri, Apr 17
62 °FLight rain. Low clouds.6 mph96%29.97 "Hg9 mi
8:51 PM62 °FLight rain. Mostly cloudy.8 mph96%29.97 "Hg10 mi
7:51 PM62 °FLight rain. Fog.3 mph96%29.97 "Hg6 mi
6:51 PM62 °FHeavy rain. Fog.5 mph96%29.97 "Hg2 mi
5:51 PM62 °FLow clouds.6 mph96%29.97 "Hg10 mi
4:51 PM62 °FLight rain. Low clouds.7 mph96%29.99 "Hg10 mi
3:51 PM62 °FMostly cloudy.7 mph93%30.01 "Hg10 mi
2:51 PM61 °FLight rain. Fog.6 mph93%30.05 "Hg6 mi
1:51 PM61 °FLight rain. Low clouds.5 mph90%30.08 "Hg10 mi
12:51 PM59 °FBroken clouds.8 mph96%30.09 "Hg10 mi
11:51 AM59 °FLight rain. Low clouds.5 mph93%30.11 "Hg7 mi
10:51 AM58 °FRain. Fog.6 mph97%30.11 "Hg5 mi
9:51 AM57 °FRain. Fog.3 mph96%30.12 "Hg5 mi
8:51 AM57 °FLow clouds.7 mph93%30.13 "Hg10 mi
7:51 AM57 °FLow clouds.8 mph93%30.12 "Hg7 mi
6:51 AM56 °FFog.6 mph97%30.11 "Hg6 mi
5:51 AM57 °FLight rain. Low clouds.5 mph93%30.10 "Hg10 mi
4:51 AM56 °FLow clouds.6 mph97%30.11 "Hg10 mi
3:51 AM56 °FLow clouds.8 mph97%30.09 "Hg10 mi
2:51 AM56 °FLow clouds.6 mph93%30.11 "Hg10 mi
1:51 AM56 °FLow clouds.7 mph93%30.13 "Hg10 mi
12:51 AM56 °FLow clouds.10 mph93%30.14 "Hg10 mi
12:00 AM57 °FMostly cloudy.7 mph88%30.17 "Hg10 mi
Weather by CustomWeather, © 2015

See weather overviewHow to use our weather pages